Location: Unspecified
(0.0000°N, 0.0000°E)
Time: 04:06:05
(UTC+00:00)

Vanguard 2 Rocket - Pass Details

Date: 17 December 2017
Orbit: 553 x 3328 km, 32.9° (Epoch: 20 April)

Event Time Altitude Azimuth Distance (km) Brightness Sun altitude
Rises 14:18:44 0° 233° (SW) 2,815 10.1 48.3°
Reaches altitude 10° 14:20:41 10° 232° (SW) 2,021 9.7 47.9°
Maximum altitude 14:25:10 81° 144° (SE) 818 7.5 47.0°
Drops below altitude 10° 14:32:18 10° 57° (ENE) 3,152 9.3 45.5°
Sets 14:36:01 0° 56° (ENE) 4,560 10.1 44.7°
